Weather History for KOZW - October, 2012

Change the Weather History Date:

Monday, October 8, 2012

  Actual Average Record
Temperature  
Mean Temperature 43 °F -  
Max Temperature 54 °F 63 °F 89 °F (2007)
Min Temperature 32 °F 42 °F 28 °F (2001)
Degree Days  
Heating Degree Days 22    
Moisture  
Dew Point 26 °F    
Average Humidity 58    
Maximum Humidity 92    
Minimum Humidity 26    
Precipitation  
Precipitation 0.00 in - - ()
Sea Level Pressure  
Sea Level Pressure 30.14 in    
Wind  
Wind Speed 4 mph (SSW)    
Max Wind Speed 13 mph    
Max Gust Speed 18 mph    
Visibility 10 miles    
Events      
Averages and records for this station are not official NWS values.
T = Trace of Precipitation, MM = Missing Value Source: NWS Daily Summary

Daily Weather History Graph

Daily Weather History Graph

Search for Another Location

Airport or City:

Trip Planner

Search our weather history database for the weather conditions in past years. The results will help you decide how hot, cold, wet, or windy it might be!

Date:

Astronomy

Oct. 08, 2012 Rise Set
Actual Time 7:41 AM EDT 7:04 PM EDT
Civil Twilight 7:13 AM EDT 7:32 PM EDT
Nautical Twilight 6:40 AM EDT 8:05 PM EDT
Astronomical Twilight 6:07 AM EDT 8:37 PM EDT
Moon 12:11 AM EDT (10/8) 3:01 PM EDT (10/8)
Length of Visible Light 12h 19m
Length of Day
11h 22m
Waning Gibbous, 46% of the Moon is Illuminated
Oct 8
Waning Gibbous
Oct 15
New
Oct 21
First Quarter
Oct 29
Full
Nov 6
Last Quarter

Hourly Weather History & Observations

Time (EDT) Temp. Windchill Dew Point Humidity Pressure Visibility Wind Dir Wind Speed Gust Speed Precip Events Conditions
12:14 AM 36.5 °F 33.9 °F 33.1 °F 87% 30.14 in 10.0 mi WSW 3.5 mph - N/A   Clear
12:35 AM 36.1 °F - 33.1 °F 89% 30.14 in 10.0 mi Calm Calm - N/A   Clear
12:55 AM 35.6 °F - 32.5 °F 89% 30.13 in 10.0 mi Calm Calm - N/A   Clear
1:14 AM 35.6 °F - 32.4 °F 88% 30.14 in 10.0 mi Calm Calm - N/A   Clear
1:35 AM 34.7 °F - 32.0 °F 90% 30.14 in 10.0 mi Calm Calm - N/A   Clear
1:54 AM 34.3 °F - 32.0 °F 91% 30.14 in 10.0 mi Calm Calm - N/A   Clear
2:15 AM 33.8 °F - 31.6 °F 92% 30.15 in 10.0 mi Calm Calm - N/A   Clear
2:35 AM 33.6 °F - 31.6 °F 92% 30.15 in 10.0 mi Calm Calm - N/A   Clear
2:54 AM 32.4 °F - 30.4 °F 92% 30.15 in 10.0 mi Calm Calm - N/A   Clear
3:15 AM 32.7 °F - 30.6 °F 92% 30.15 in 10.0 mi Calm Calm - N/A   Clear
3:35 AM 32.7 °F - 30.7 °F 92% 30.15 in 10.0 mi Calm Calm - N/A   Clear
3:54 AM 32.0 °F 27.5 °F 30.0 °F 92% 30.15 in 10.0 mi SW 4.6 mph - N/A   Clear
4:15 AM 33.1 °F 27.7 °F 31.1 °F 92% 30.15 in 10.0 mi SSW 5.8 mph - N/A   Scattered Clouds
4:35 AM 33.1 °F 28.7 °F 31.1 °F 92% 30.15 in 10.0 mi SSW 4.6 mph - N/A   Clear
4:54 AM 32.5 °F 29.3 °F 30.2 °F 91% 30.15 in 10.0 mi SW 3.5 mph - N/A   Clear
5:15 AM 32.5 °F 29.3 °F 30.2 °F 91% 30.15 in 10.0 mi SSW 3.5 mph - N/A   Clear
5:35 AM 32.7 °F 29.6 °F 30.2 °F 90% 30.15 in 10.0 mi SSW 3.5 mph - N/A   Scattered Clouds
5:54 AM 32.9 °F 29.8 °F 30.2 °F 90% 30.15 in 10.0 mi SSW 3.5 mph - N/A   Scattered Clouds
6:15 AM 33.1 °F 28.7 °F 29.8 °F 88% 30.16 in 10.0 mi SSW 4.6 mph - N/A   Scattered Clouds
6:34 AM 33.1 °F - 29.7 °F 87% 30.16 in 10.0 mi Calm Calm - N/A   Mostly Cloudy
6:55 AM 33.6 °F 30.6 °F 29.5 °F 85% 30.16 in 10.0 mi South 3.5 mph - N/A   Scattered Clouds
7:15 AM 32.9 °F - 28.4 °F 84% 30.17 in 10.0 mi Calm Calm - N/A   Scattered Clouds
7:34 AM 33.4 °F 30.4 °F 29.3 °F 85% 30.17 in 10.0 mi SSW 3.5 mph - N/A   Mostly Cloudy
7:55 AM 33.6 °F 30.6 °F 29.3 °F 84% 30.17 in 10.0 mi SSW 3.5 mph - N/A   Scattered Clouds
8:14 AM 34.2 °F 31.2 °F 29.7 °F 84% 30.18 in 10.0 mi South 3.5 mph - N/A   Clear
8:35 AM 35.6 °F 31.7 °F 30.0 °F 80% 30.18 in 10.0 mi SSW 4.6 mph - N/A   Clear
8:55 AM 36.9 °F 32.2 °F 30.6 °F 78% 30.19 in 10.0 mi SSW 5.8 mph - N/A   Clear
9:14 AM 38.3 °F 33.2 °F 31.1 °F 75% 30.19 in 10.0 mi SSW 6.9 mph - N/A   Clear
9:35 AM 40.1 °F 35.3 °F 30.7 °F 69% 30.19 in 10.0 mi SW 6.9 mph - N/A   Clear
9:55 AM 41.9 °F 37.5 °F 30.4 °F 64% 30.19 in 10.0 mi SW 6.9 mph - N/A   Clear
10:15 AM 44.2 °F 39.7 °F 28.8 °F 55% 30.19 in 10.0 mi SW 8.1 mph - N/A   Clear
10:35 AM 45.7 °F 41.0 °F 27.1 °F 48% 30.18 in 10.0 mi SW 9.2 mph - N/A   Clear
10:54 AM 47.7 °F - 26.8 °F 44% 30.18 in 10.0 mi WSW 5.8 mph - N/A   Clear
11:15 AM 48.6 °F - 24.6 °F 39% 30.18 in 10.0 mi SW 10.4 mph 16.1 mph N/A   Clear
11:34 AM 50.2 °F - 23.7 °F 36% 30.18 in 10.0 mi SW 10.4 mph - N/A   Clear
11:55 AM 50.9 °F - 24.1 °F 35% 30.18 in 10.0 mi South 12.7 mph 16.1 mph N/A   Clear
12:15 PM 51.1 °F - 23.4 °F 34% 30.18 in 10.0 mi SSW 12.7 mph 16.1 mph N/A   Clear
12:34 PM 52.0 °F - 22.5 °F 32% 30.18 in 10.0 mi SSW 8.1 mph 17.3 mph N/A   Clear
12:55 PM 51.8 °F - 21.9 °F 31% 30.17 in 10.0 mi SSW 10.4 mph 16.1 mph N/A   Scattered Clouds
1:15 PM 52.7 °F - 21.9 °F 30% 30.17 in 10.0 mi SW 8.1 mph 16.1 mph N/A   Scattered Clouds
1:34 PM 52.9 °F - 21.2 °F 29% 30.17 in 10.0 mi South 10.4 mph 16.1 mph N/A   Scattered Clouds
1:55 PM 53.4 °F - 21.6 °F 29% 30.15 in 10.0 mi SSW 6.9 mph - N/A   Scattered Clouds
2:15 PM 53.6 °F - 23.2 °F 31% 30.14 in 10.0 mi SW 8.1 mph - N/A   Scattered Clouds
2:34 PM 53.4 °F - 20.8 °F 28% 30.13 in 10.0 mi SSW 10.4 mph - N/A   Clear
2:55 PM 54.1 °F - 21.4 °F 28% 30.12 in 10.0 mi SSW 11.5 mph 18.4 mph N/A   Clear
3:15 PM 53.8 °F - 20.5 °F 27% 30.11 in 10.0 mi SW 10.4 mph - N/A   Clear
3:34 PM 54.0 °F - 20.8 °F 27% 30.11 in 10.0 mi SSW 3.5 mph - N/A   Clear
3:55 PM 54.5 °F - 20.3 °F 26% 30.10 in 10.0 mi SW 8.1 mph - N/A   Clear
4:15 PM 54.3 °F - 20.1 °F 26% 30.10 in 10.0 mi SSW 10.4 mph 16.1 mph N/A   Clear
4:34 PM 54.0 °F - 20.3 °F 27% 30.10 in 10.0 mi South 9.2 mph - N/A   Clear
4:55 PM 54.0 °F - 20.7 °F 27% 30.09 in 10.0 mi South 9.2 mph - N/A   Clear
5:14 PM 54.0 °F - 20.5 °F 27% 30.10 in 10.0 mi South 11.5 mph - N/A   Clear
5:35 PM 53.6 °F - 19.6 °F 26% 30.09 in 10.0 mi South 9.2 mph - N/A   Clear
5:55 PM 52.9 °F - 18.9 °F 26% 30.09 in 10.0 mi South 11.5 mph 16.1 mph N/A   Clear
6:14 PM 52.3 °F - 20.1 °F 28% 30.09 in 10.0 mi South 9.2 mph - N/A   Clear
6:35 PM 51.8 °F - 20.1 °F 29% 30.08 in 10.0 mi South 5.8 mph - N/A   Clear
6:54 PM 50.2 °F - 21.2 °F 32% 30.08 in 10.0 mi South 9.2 mph - N/A   Clear
7:15 PM 48.2 °F - 21.9 °F 36% 30.08 in 10.0 mi South 5.8 mph - N/A   Clear
7:35 PM 46.9 °F - 22.3 °F 38% 30.08 in 10.0 mi South 4.6 mph - N/A   Clear
7:54 PM 45.7 °F 43.4 °F 23.0 °F 41% 30.08 in 10.0 mi South 4.6 mph - N/A   Clear
8:15 PM 45.1 °F 42.8 °F 23.9 °F 43% 30.09 in 10.0 mi South 4.6 mph - N/A   Clear
8:35 PM 45.0 °F 41.8 °F 23.9 °F 44% 30.09 in 10.0 mi South 5.8 mph - N/A   Clear
8:54 PM 44.6 °F 42.2 °F 24.4 °F 45% 30.10 in 10.0 mi South 4.6 mph - N/A   Clear
9:15 PM 43.2 °F 40.5 °F 25.2 °F 49% 30.10 in 10.0 mi South 4.6 mph - N/A   Clear
9:35 PM 42.8 °F 39.3 °F 25.5 °F 51% 30.10 in 10.0 mi South 5.8 mph - N/A   Clear
9:54 PM 43.0 °F 39.5 °F 25.3 °F 50% 30.11 in 10.0 mi South 5.8 mph - N/A   Clear
10:15 PM 42.4 °F 38.8 °F 25.5 °F 51% 30.11 in 10.0 mi South 5.8 mph - N/A   Clear
10:34 PM 42.3 °F 37.9 °F 25.7 °F 52% 30.10 in 10.0 mi SSE 6.9 mph - N/A   Clear
10:55 PM 42.3 °F 38.6 °F 25.5 °F 52% 30.11 in 10.0 mi South 5.8 mph - N/A   Clear
11:14 PM 42.8 °F 39.3 °F 25.3 °F 50% 30.10 in 10.0 mi South 5.8 mph - N/A   Clear
11:54 PM 42.8 °F 38.6 °F 25.7 °F 51% 30.10 in 10.0 mi South 6.9 mph - N/A   Clear